• In Romania
  • List of Countries
  • For 7 days
  • Water Temperature
  • Satellite Maps
  • Weather Map
  • Weather Widgets
  • user-avatar
    Login

    Hourly Weather Salta

    Today, 21 November, Tuesday

    Time Temperature Precipitation Wind Pressure Humidity
    00:00 +21°C° 0 mm 1 mps 648 mmHg 60%
    01:00 +21°C° 0 mm 1 mps 648 mmHg 60%
    02:00 +20°C° 0 mm 1 mps 648 mmHg 66%
    03:00 +20°C° 0 mm 1 mps 649 mmHg 66%
    04:00 +20°C° 0 mm 1 mps 649 mmHg 65%
    05:00 +20°C° 0 mm 1 mps 649 mmHg 65%
    06:00 +20°C° 0.1 mm 2 mps 650 mmHg 61%
    07:00 +21°C° 0.1 mm 3 mps 651 mmHg 58%
    08:00 +24°C° 0.1 mm 3 mps 652 mmHg 55%
    09:00 +24°C° 0.1 mm 3 mps 653 mmHg 54%
    10:00 +25°C° 0.1 mm 4 mps 653 mmHg 53%
    11:00 +25°C° 0.1 mm 4 mps 653 mmHg 51%
    12:00 +25°C° 0.1 mm 4 mps 652 mmHg 51%
    13:00 +25°C° 0.1 mm 4 mps 652 mmHg 51%
    14:00 +26°C° 0.1 mm 4 mps 651 mmHg 50%
    15:00 +25°C° 0 mm 4 mps 650 mmHg 53%
    16:00 +23°C° 0 mm 4 mps 650 mmHg 55%
    17:00 +22°C° 0 mm 3 mps 649 mmHg 58%
    18:00 +21°C° 0 mm 3 mps 650 mmHg 62%
    19:00 +20°C° 0 mm 3 mps 651 mmHg 66%
    20:00 +19°C° 0 mm 2 mps 651 mmHg 70%
    21:00 +19°C° 0 mm 2 mps 652 mmHg 72%
    22:00 +18°C° 0 mm 2 mps 652 mmHg 74%
    23:00 +17°C° 0 mm 2 mps 652 mmHg 76%

    Tomorrow, 22 November, Wednesday

    Time Temperature Precipitation Wind Pressure Humidity
    00:00 +18°C° 0 mm 1 mps 652 mmHg 76%
    01:00 +18°C° 0 mm 1 mps 652 mmHg 76%
    02:00 +16°C° 0 mm 1 mps 651 mmHg 77%
    03:00 +16°C° 0 mm 1 mps 651 mmHg 77%
    04:00 +16°C° 0 mm 1 mps 651 mmHg 78%
    05:00 +16°C° 0 mm 1 mps 651 mmHg 78%
    06:00 +18°C° 0 mm 1 mps 651 mmHg 75%
    07:00 +19°C° 0 mm 1 mps 652 mmHg 71%
    08:00 +19°C° 0 mm 1 mps 652 mmHg 68%
    09:00 +19°C° 0.1 mm 2 mps 652 mmHg 65%
    10:00 +20°C° 0.1 mm 2 mps 652 mmHg 63%
    11:00 +21°C° 0.1 mm 3 mps 652 mmHg 60%
    12:00 +21°C° 0.1 mm 3 mps 651 mmHg 61%
    13:00 +21°C° 0.1 mm 3 mps 650 mmHg 62%
    14:00 +21°C° 0.1 mm 2 mps 649 mmHg 63%
    15:00 +21°C° 0.1 mm 2 mps 648 mmHg 64%
    16:00 +21°C° 0.1 mm 2 mps 648 mmHg 65%
    17:00 +21°C° 0.1 mm 2 mps 648 mmHg 66%
    18:00 +20°C° 0 mm 2 mps 648 mmHg 70%
    19:00 +19°C° 0 mm 2 mps 648 mmHg 75%
    20:00 +18°C° 0 mm 2 mps 649 mmHg 79%
    21:00 +18°C° 0 mm 1 mps 649 mmHg 79%
    22:00 +18°C° 0 mm 1 mps 650 mmHg 80%
    23:00 +16°C° 0 mm 1 mps 650 mmHg 80%

    Day after tomorrow, 23 November, Thursday

    Time Temperature Precipitation Wind Pressure Humidity
    00:00 +16°C° 0 mm 1 mps 650 mmHg 80%
    01:00 +16°C° 0 mm 1 mps 649 mmHg 79%
    02:00 +16°C° 0 mm 1 mps 649 mmHg 79%
    03:00 +16°C° 0 mm 1 mps 649 mmHg 78%
    04:00 +15°C° 0 mm 1 mps 649 mmHg 77%
    05:00 +15°C° 0 mm 1 mps 649 mmHg 76%
    06:00 +19°C° 0 mm 1 mps 650 mmHg 66%
    07:00 +21°C° 0 mm 1 mps 651 mmHg 56%
    08:00 +23°C° 0 mm 1 mps 652 mmHg 46%
    09:00 +25°C° 0 mm 2 mps 652 mmHg 41%
    10:00 +27°C° 0 mm 2 mps 652 mmHg 35%
    11:00 +29°C° 0 mm 3 mps 652 mmHg 30%
    12:00 +30°C° 0 mm 3 mps 652 mmHg 29%
    13:00 +32°C° 0 mm 4 mps 651 mmHg 27%
    14:00 +33°C° 0 mm 4 mps 650 mmHg 26%
    15:00 +33°C° 0 mm 4 mps 650 mmHg 28%
    16:00 +32°C° 0 mm 4 mps 649 mmHg 30%
    17:00 +30°C° 0 mm 4 mps 648 mmHg 33%
    18:00 +28°C° 0 mm 3 mps 648 mmHg 41%
    19:00 +26°C° 0 mm 3 mps 648 mmHg 50%
    20:00 +23°C° 0 mm 2 mps 648 mmHg 59%
    21:00 +23°C° 0 mm 2 mps 649 mmHg 62%
    22:00 +22°C° 0 mm 1 mps 649 mmHg 65%
    23:00 +22°C° 0 mm 1 mps 650 mmHg 68%

    24 November, Friday

    Time Temperature Precipitation Wind Pressure Humidity
    00:00 +21°C° 0 mm 1 mps 649 mmHg 69%
    01:00 +21°C° 0 mm 1 mps 649 mmHg 70%
    02:00 +21°C° 0 mm 1 mps 648 mmHg 71%
    03:00 +20°C° 0 mm 1 mps 648 mmHg 72%
    04:00 +20°C° 0 mm 1 mps 648 mmHg 72%
    05:00 +20°C° 0 mm 1 mps 648 mmHg 72%
    06:00 +22°C° 0 mm 1 mps 649 mmHg 63%
    07:00 +24°C° 0 mm 1 mps 650 mmHg 53%
    08:00 +27°C° 0 mm 2 mps 651 mmHg 44%
    09:00 +28°C° 0 mm 2 mps 651 mmHg 40%
    10:00 +30°C° 0 mm 3 mps 651 mmHg 37%
    11:00 +33°C° 0 mm 4 mps 651 mmHg 33%
    12:00 +33°C° 0 mm 4 mps 650 mmHg 32%
    13:00 +34°C° 0 mm 4 mps 649 mmHg 31%
    14:00 +35°C° 0 mm 5 mps 649 mmHg 30%
    15:00 +34°C° 0.1 mm 5 mps 648 mmHg 32%
    16:00 +34°C° 0.1 mm 5 mps 647 mmHg 34%
    17:00 +33°C° 0.1 mm 5 mps 646 mmHg 36%
    18:00 +30°C° 0 mm 4 mps 647 mmHg 43%
    19:00 +28°C° 0 mm 3 mps 647 mmHg 50%
    20:00 +26°C° 0 mm 2 mps 647 mmHg 56%
    21:00 +25°C° 0.1 mm 1 mps 648 mmHg 59%
    22:00 +25°C° 0.1 mm 1 mps 648 mmHg 62%
    23:00 +24°C° 0.1 mm 1 mps 648 mmHg 65%

    25 November, Saturday

    Time Temperature Precipitation Wind Pressure Humidity
    00:00 +24°C° 0 mm 1 mps 648 mmHg 65%
    01:00 +24°C° 0 mm 2 mps 648 mmHg 65%
    02:00 +23°C° 0 mm 2 mps 648 mmHg 64%
    03:00 +23°C° 0 mm 2 mps 649 mmHg 67%
    04:00 +21°C° 0 mm 2 mps 649 mmHg 70%
    05:00 +21°C° 0 mm 2 mps 650 mmHg 73%
    06:00 +21°C° 0 mm 2 mps 651 mmHg 70%
    07:00 +23°C° 0 mm 2 mps 652 mmHg 68%
    08:00 +23°C° 0 mm 2 mps 652 mmHg 65%
    09:00 +24°C° 0.1 mm 2 mps 652 mmHg 61%
    10:00 +25°C° 0.1 mm 3 mps 652 mmHg 58%
    11:00 +26°C° 0.1 mm 3 mps 652 mmHg 54%
    12:00 +27°C° 0 mm 3 mps 652 mmHg 50%
    13:00 +27°C° 0 mm 3 mps 651 mmHg 47%
    14:00 +28°C° 0 mm 4 mps 651 mmHg 44%
    15:00 +28°C° 0 mm 4 mps 650 mmHg 42%
    16:00 +28°C° 0 mm 4 mps 650 mmHg 41%
    17:00 +28°C° 0 mm 4 mps 650 mmHg 40%
    18:00 +26°C° 0 mm 3 mps 650 mmHg 45%
    19:00 +24°C° 0 mm 2 mps 650 mmHg 50%
    20:00 +22°C° 0 mm 1 mps 651 mmHg 55%
    21:00 +21°C° 0 mm 1 mps 651 mmHg 57%
    22:00 +20°C° 0 mm 1 mps 651 mmHg 59%
    23:00 +20°C° 0 mm 1 mps 651 mmHg 60%

    26 November, Sunday

    Time Temperature Precipitation Wind Pressure Humidity
    00:00 +19°C° 0 mm 1 mps 651 mmHg 61%
    01:00 +19°C° 0 mm 1 mps 650 mmHg 61%
    02:00 +19°C° 0 mm 1 mps 650 mmHg 61%
    03:00 +19°C° 0 mm 1 mps 650 mmHg 62%
    04:00 +18°C° 0 mm 1 mps 649 mmHg 62%
    05:00 +18°C° 0 mm 1 mps 649 mmHg 63%
    06:00 +20°C° 0 mm 1 mps 650 mmHg 56%
    07:00 +22°C° 0 mm 1 mps 651 mmHg 50%
    08:00 +24°C° 0 mm 2 mps 652 mmHg 43%
    09:00 +26°C° 0 mm 2 mps 652 mmHg 39%
    10:00 +28°C° 0 mm 3 mps 651 mmHg 35%
    11:00 +29°C° 0 mm 3 mps 651 mmHg 31%
    12:00 +30°C° 0 mm 3 mps 650 mmHg 31%
    13:00 +32°C° 0 mm 4 mps 649 mmHg 31%
    14:00 +32°C° 0 mm 4 mps 648 mmHg 31%
    15:00 +32°C° 0 mm 4 mps 648 mmHg 33%
    16:00 +30°C° 0 mm 4 mps 648 mmHg 35%
    17:00 +30°C° 0 mm 4 mps 647 mmHg 37%
    18:00 +28°C° 0 mm 3 mps 647 mmHg 44%
    19:00 +26°C° 0 mm 2 mps 648 mmHg 50%
    20:00 +24°C° 0 mm 2 mps 648 mmHg 56%
    21:00 +23°C° 0 mm 1 mps 648 mmHg 58%
    22:00 +22°C° 0 mm 1 mps 649 mmHg 60%
    23:00 +22°C° 0 mm 1 mps 649 mmHg 62%
    Show more